contact: severine.martini@mio.osupytheas.fr, dominique.lefevre@mio.osupytheas.fr
Project:EMSO Ligure-ouest http://www.emso-fr.org/EMSO-France
Sensor Optode, line 4330 Serial 272 
DOI : "https://doi.org/10.17882/97948" 
Title:EMSO Ligure Ouest : Data BathyDock capteur Optode - deploiement "2023-04-28"
Datetime,Profondeur,Latitude,Longitude,optode_type,serial,O2_concentration,O2_saturation,Temperature,Calibrated_Phase,Temp_Compensated_Phase,phase_blue_light,phase_red_light,Amplitude_blue_light,Amplitude_red_light,thermistor_bridge
time,m,degree_north,degree_east,1,1,umol.l-1,%,degree_C,degree,degree,degree,degree,mV,mV,mV
2023-11-29T00:00:08,2420,42.8014,5.9826,4330,272,186.327,57.072,13.314,36.047,36.627,41.221,4.594,295.8,544.8,291.1
2023-11-29T00:03:07,2420,42.8014,5.9826,4330,272,186.189,57.029,13.313,36.056,36.636,41.228,4.592,295.8,544.8,291.1
2023-11-29T00:06:07,2420,42.8014,5.9826,4330,272,186.338,57.073,13.312,36.047,36.627,41.217,4.591,295.8,544.8,291.2
2023-11-29T00:09:07,2420,42.8014,5.9826,4330,272,186.284,57.061,13.316,36.048,36.628,41.218,4.590,295.8,544.8,291.0
2023-11-29T00:12:07,2420,42.8014,5.9826,4330,272,186.493,57.122,13.313,36.036,36.616,41.204,4.588,295.8,544.8,291.1
2023-11-29T00:15:07,2420,42.8014,5.9826,4330,272,186.321,57.069,13.313,36.047,36.627,41.219,4.592,295.7,544.8,291.1
2023-11-29T00:18:07,2420,42.8014,5.9826,4330,272,186.212,57.034,13.312,36.055,36.635,41.223,4.588,295.7,544.8,291.2
2023-11-29T00:21:07,2420,42.8014,5.9826,4330,272,186.069,56.990,13.312,36.065,36.645,41.233,4.588,295.7,544.8,291.2
2023-11-29T00:24:08,2420,42.8014,5.9826,4330,272,186.311,57.064,13.312,36.049,36.629,41.221,4.593,295.7,544.9,291.2
2023-11-29T00:27:08,2420,42.8014,5.9826,4330,272,186.476,57.115,13.312,36.038,36.618,41.205,4.587,295.8,544.8,291.2
2023-11-29T00:30:08,2420,42.8014,5.9826,4330,272,186.268,57.055,13.315,36.050,36.630,41.219,4.590,295.7,544.8,291.1
2023-11-29T00:33:07,2420,42.8014,5.9826,4330,272,186.512,57.136,13.320,36.031,36.611,41.198,4.587,295.7,544.8,290.9
2023-11-29T00:36:07,2420,42.8014,5.9826,4330,272,186.399,57.095,13.315,36.042,36.622,41.214,4.593,295.7,544.8,291.1
2023-11-29T00:39:07,2420,42.8014,5.9826,4330,272,186.395,57.094,13.315,36.042,36.622,41.214,4.592,295.7,544.7,291.1
2023-11-29T00:42:07,2420,42.8014,5.9826,4330,272,186.411,57.101,13.317,36.040,36.620,41.209,4.589,295.7,544.8,291.0
2023-11-29T00:45:07,2420,42.8014,5.9826,4330,272,186.411,57.099,13.315,36.041,36.621,41.210,4.590,295.7,544.8,291.1
2023-11-29T00:48:07,2420,42.8014,5.9826,4330,272,186.419,57.099,13.313,36.041,36.621,41.210,4.590,295.7,544.8,291.1
2023-11-29T00:51:07,2420,42.8014,5.9826,4330,272,186.390,57.090,13.313,36.043,36.623,41.217,4.593,295.7,544.8,291.1
2023-11-29T00:54:08,2420,42.8014,5.9826,4330,272,186.414,57.098,13.314,36.041,36.621,41.213,4.592,295.6,544.7,291.1
2023-11-29T00:57:08,2420,42.8014,5.9826,4330,272,186.421,57.100,13.313,36.040,36.620,41.213,4.593,295.7,544.7,291.1
2023-11-29T01:00:08,2420,42.8014,5.9826,4330,272,186.431,57.103,13.313,36.040,36.620,41.211,4.590,295.7,544.7,291.1
2023-11-29T01:03:07,2420,42.8014,5.9826,4330,272,186.486,57.119,13.313,36.037,36.617,41.206,4.589,295.7,544.8,291.1
2023-11-29T01:06:07,2420,42.8014,5.9826,4330,272,186.636,57.166,13.313,36.026,36.607,41.200,4.594,295.6,544.7,291.1
2023-11-29T01:09:07,2420,42.8014,5.9826,4330,272,186.590,57.154,13.315,36.028,36.608,41.200,4.592,295.7,544.8,291.0
2023-11-29T01:12:07,2420,42.8014,5.9826,4330,272,186.494,57.122,13.314,36.036,36.616,41.208,4.592,295.7,544.8,291.1
2023-11-29T01:15:08,2420,42.8014,5.9826,4330,272,186.588,57.151,13.313,36.030,36.610,41.202,4.592,295.6,544.8,291.1
2023-11-29T01:18:08,2420,42.8014,5.9826,4330,272,186.409,57.095,13.312,36.042,36.622,41.215,4.593,295.7,544.8,291.1
2023-11-29T01:21:08,2420,42.8014,5.9826,4330,272,186.184,57.032,13.317,36.054,36.634,41.227,4.593,295.6,544.8,291.0
2023-11-29T01:24:08,2420,42.8014,5.9826,4330,272,186.637,57.169,13.316,36.026,36.606,41.196,4.589,295.6,544.8,291.0
2023-11-29T01:27:07,2420,42.8014,5.9826,4330,272,186.540,57.144,13.320,36.030,36.610,41.204,4.594,295.7,544.8,290.9
2023-11-29T01:30:07,2420,42.8014,5.9826,4330,272,186.432,57.109,13.318,36.038,36.618,41.206,4.589,295.7,544.8,291.0
2023-11-29T01:33:08,2420,42.8014,5.9826,4330,272,186.534,57.140,13.317,36.031,36.611,41.201,4.590,295.6,544.8,291.0
2023-11-29T01:36:08,2420,42.8014,5.9826,4330,272,186.369,57.085,13.314,36.044,36.624,41.211,4.587,295.6,544.8,291.1
2023-11-29T01:39:07,2420,42.8014,5.9826,4330,272,186.609,57.163,13.318,36.026,36.606,41.199,4.593,295.6,544.8,291.0
2023-11-29T01:42:07,2420,42.8014,5.9826,4330,272,186.423,57.099,13.312,36.042,36.622,41.211,4.589,295.7,544.8,291.2
2023-11-29T01:45:07,2420,42.8014,5.9826,4330,272,186.570,57.145,13.313,36.032,36.612,41.202,4.590,295.7,544.8,291.1
2023-11-29T01:48:07,2420,42.8014,5.9826,4330,272,186.497,57.126,13.315,36.034,36.614,41.201,4.586,295.6,544.8,291.1
2023-11-29T01:51:08,2420,42.8014,5.9826,4330,272,186.355,57.081,13.315,36.044,36.624,41.206,4.582,295.6,544.8,291.1
2023-11-29T01:54:08,2420,42.8014,5.9826,4330,272,186.655,57.170,13.312,36.026,36.606,41.196,4.590,295.6,544.8,291.1
2023-11-29T01:57:08,2420,42.8014,5.9826,4330,272,186.388,57.085,13.309,36.045,36.625,41.216,4.591,295.6,544.8,291.3
2023-11-29T02:00:07,2420,42.8014,5.9826,4330,272,186.795,57.209,13.309,36.018,36.599,41.192,4.593,295.7,544.8,291.3
2023-11-29T02:03:07,2420,42.8014,5.9826,4330,272,186.622,57.156,13.309,36.029,36.609,41.195,4.585,295.7,544.8,291.3
2023-11-29T02:06:07,2420,42.8014,5.9826,4330,272,186.365,57.080,13.311,36.045,36.625,41.215,4.590,295.6,544.9,291.2
2023-11-29T02:09:07,2420,42.8014,5.9826,4330,272,186.639,57.163,13.310,36.028,36.608,41.199,4.590,295.7,544.9,291.2
2023-11-29T02:12:08,2420,42.8014,5.9826,4330,272,186.545,57.134,13.310,36.034,36.615,41.207,4.592,295.6,544.9,291.2
2023-11-29T02:15:08,2420,42.8014,5.9826,4330,272,186.747,57.193,13.309,36.022,36.602,41.194,4.593,295.7,544.9,291.3
2023-11-29T02:18:08,2420,42.8014,5.9826,4330,272,186.816,57.215,13.309,36.017,36.598,41.188,4.590,295.6,544.9,291.3
2023-11-29T02:21:08,2420,42.8014,5.9826,4330,272,186.762,57.200,13.310,36.020,36.600,41.189,4.589,295.6,544.8,291.2
2023-11-29T02:24:07,2420,42.8014,5.9826,4330,272,186.863,57.231,13.310,36.014,36.594,41.189,4.596,295.6,544.9,291.2
2023-11-29T02:27:07,2420,42.8014,5.9826,4330,272,186.614,57.156,13.311,36.029,36.609,41.192,4.583,295.6,544.8,291.2
2023-11-29T02:30:07,2420,42.8014,5.9826,4330,272,186.652,57.164,13.308,36.028,36.608,41.204,4.595,295.7,544.9,291.3
2023-11-29T02:33:07,2420,42.8014,5.9826,4330,272,186.520,57.126,13.310,36.036,36.616,41.210,4.595,295.5,544.8,291.2
2023-11-29T02:36:07,2420,42.8014,5.9826,4330,272,186.500,57.119,13.309,36.037,36.617,41.203,4.586,295.6,544.9,291.2
2023-11-29T02:39:07,2420,42.8014,5.9826,4330,272,186.466,57.110,13.310,36.039,36.619,41.212,4.593,295.6,544.8,291.2
2023-11-29T02:42:07,2420,42.8014,5.9826,4330,272,186.494,57.118,13.310,36.038,36.618,41.207,4.589,295.6,544.9,291.2
2023-11-29T02:45:08,2420,42.8014,5.9826,4330,272,186.468,57.111,13.311,36.039,36.619,41.207,4.588,295.6,544.8,291.2
2023-11-29T02:48:08,2420,42.8014,5.9826,4330,272,186.295,57.055,13.309,36.051,36.631,41.221,4.590,295.6,544.8,291.3
2023-11-29T02:51:08,2420,42.8014,5.9826,4330,272,186.487,57.114,13.309,36.038,36.618,41.208,4.590,295.6,544.9,291.3
2023-11-29T02:54:08,2420,42.8014,5.9826,4330,272,186.514,57.124,13.310,36.036,36.616,41.210,4.593,295.6,544.8,291.2
2023-11-29T02:57:07,2420,42.8014,5.9826,4330,272,186.509,57.125,13.312,36.036,36.616,41.205,4.589,295.6,544.8,291.2
2023-11-29T03:00:07,2420,42.8014,5.9826,4330,272,186.217,57.036,13.312,36.054,36.634,41.226,4.591,295.6,544.8,291.1
2023-11-29T03:03:07,2420,42.8014,5.9826,4330,272,186.481,57.120,13.315,36.036,36.616,41.209,4.593,295.7,544.8,291.1
2023-11-29T03:06:07,2420,42.8014,5.9826,4330,272,186.232,57.041,13.313,36.053,36.633,41.224,4.591,295.8,544.8,291.1
2023-11-29T03:09:07,2420,42.8014,5.9826,4330,272,186.293,57.062,13.314,36.049,36.629,41.218,4.589,295.8,544.8,291.1
2023-11-29T03:12:07,2420,42.8014,5.9826,4330,272,186.113,57.003,13.312,36.062,36.642,41.230,4.589,295.7,544.9,291.2
2023-11-29T03:15:07,2420,42.8014,5.9826,4330,272,186.389,57.086,13.310,36.044,36.624,41.217,4.593,295.7,544.9,291.2
2023-11-29T03:18:08,2420,42.8014,5.9826,4330,272,186.428,57.111,13.320,36.037,36.617,41.209,4.592,295.6,544.9,290.9
2023-11-29T03:21:08,2420,42.8014,5.9826,4330,272,186.654,57.171,13.313,36.025,36.606,41.200,4.594,295.6,544.9,291.1
2023-11-29T03:24:08,2420,42.8014,5.9826,4330,272,186.360,57.086,13.317,36.043,36.623,41.213,4.590,295.6,544.8,291.0
2023-11-29T03:27:08,2420,42.8014,5.9826,4330,272,186.237,57.047,13.316,36.051,36.631,41.220,4.589,295.7,544.9,291.0
2023-11-29T03:30:07,2420,42.8014,5.9826,4330,272,186.284,57.059,13.314,36.050,36.630,41.220,4.590,295.7,544.8,291.1
2023-11-29T03:33:07,2420,42.8014,5.9826,4330,272,186.571,57.150,13.317,36.029,36.609,41.197,4.588,295.7,544.9,291.0
2023-11-29T03:36:07,2420,42.8014,5.9826,4330,272,186.345,57.080,13.316,36.044,36.624,41.215,4.591,295.7,544.9,291.0
2023-11-29T03:39:07,2420,42.8014,5.9826,4330,272,186.495,57.125,13.315,36.035,36.615,41.210,4.595,295.8,544.8,291.1
2023-11-29T03:42:07,2420,42.8014,5.9826,4330,272,186.491,57.124,13.315,36.036,36.616,41.210,4.595,295.7,544.8,291.1
2023-11-29T03:45:08,2420,42.8014,5.9826,4330,272,186.160,57.027,13.319,36.055,36.635,41.221,4.587,295.7,544.9,290.9
2023-11-29T03:48:08,2420,42.8014,5.9826,4330,272,186.172,57.030,13.319,36.054,36.634,41.224,4.589,295.7,544.7,290.9
2023-11-29T03:51:08,2420,42.8014,5.9826,4330,272,186.542,57.140,13.316,36.032,36.612,41.201,4.589,295.7,544.9,291.0
2023-11-29T03:54:08,2420,42.8014,5.9826,4330,272,186.351,57.083,13.317,36.044,36.624,41.207,4.583,295.8,544.8,291.0
2023-11-29T03:57:08,2420,42.8014,5.9826,4330,272,186.303,57.071,13.319,36.046,36.626,41.213,4.587,295.8,544.8,290.9
2023-11-29T04:00:07,2420,42.8014,5.9826,4330,272,185.882,56.945,13.322,36.072,36.652,41.241,4.589,295.8,544.8,290.8
2023-11-29T04:03:07,2420,42.8014,5.9826,4330,272,186.312,57.070,13.316,36.046,36.626,41.218,4.592,295.8,544.8,291.0
2023-11-29T04:06:07,2420,42.8014,5.9826,4330,272,186.224,57.045,13.317,36.052,36.632,41.222,4.590,295.8,544.8,291.0
2023-11-29T04:09:07,2420,42.8014,5.9826,4330,272,186.168,57.027,13.317,36.056,36.635,41.223,4.588,295.7,544.8,291.0
2023-11-29T04:12:07,2420,42.8014,5.9826,4330,272,186.221,57.043,13.317,36.052,36.632,41.222,4.590,295.7,544.8,291.0
2023-11-29T04:15:08,2420,42.8014,5.9826,4330,272,186.203,57.039,13.318,36.053,36.633,41.222,4.589,295.8,544.8,291.0
2023-11-29T04:18:08,2420,42.8014,5.9826,4330,272,186.288,57.063,13.317,36.048,36.628,41.223,4.594,295.8,544.8,291.0
2023-11-29T04:21:08,2420,42.8014,5.9826,4330,272,186.162,57.025,13.317,36.056,36.636,41.227,4.591,295.7,544.8,291.0
2023-11-29T04:24:07,2420,42.8014,5.9826,4330,272,186.369,57.087,13.316,36.043,36.623,41.216,4.593,295.7,544.8,291.0
2023-11-29T04:27:07,2420,42.8014,5.9826,4330,272,186.311,57.073,13.319,36.045,36.625,41.216,4.591,295.6,544.8,290.9
2023-11-29T04:30:08,2420,42.8014,5.9826,4330,272,186.211,57.041,13.318,36.052,36.632,41.223,4.591,295.8,544.8,291.0
2023-11-29T04:33:07,2420,42.8014,5.9826,4330,272,186.413,57.099,13.315,36.040,36.620,41.219,4.599,295.8,544.8,291.1
2023-11-29T04:36:07,2420,42.8014,5.9826,4330,272,186.531,57.131,13.311,36.035,36.615,41.207,4.592,295.8,544.8,291.2
2023-11-29T04:39:07,2420,42.8014,5.9826,4330,272,186.184,57.030,13.315,36.055,36.635,41.226,4.591,295.6,544.9,291.1
2023-11-29T04:42:08,2420,42.8014,5.9826,4330,272,186.448,57.112,13.316,36.037,36.617,41.208,4.590,295.7,544.8,291.0
2023-11-29T04:45:08,2420,42.8014,5.9826,4330,272,186.485,57.122,13.315,36.035,36.615,41.207,4.592,295.7,544.8,291.1
2023-11-29T04:48:08,2420,42.8014,5.9826,4330,272,186.429,57.106,13.316,36.039,36.619,41.206,4.587,295.6,544.8,291.0
2023-11-29T04:51:08,2420,42.8014,5.9826,4330,272,186.626,57.163,13.314,36.027,36.607,41.197,4.590,295.6,544.8,291.1
2023-11-29T04:54:07,2420,42.8014,5.9826,4330,272,186.356,57.080,13.313,36.045,36.625,41.215,4.589,295.6,544.9,291.1
2023-11-29T04:57:07,2420,42.8014,5.9826,4330,272,186.684,57.182,13.314,36.023,36.603,41.195,4.592,295.6,544.8,291.1
2023-11-29T05:00:07,2420,42.8014,5.9826,4330,272,186.277,57.058,13.315,36.049,36.629,41.216,4.586,295.6,544.8,291.1
2023-11-29T05:03:07,2420,42.8014,5.9826,4330,272,186.660,57.175,13.315,36.025,36.605,41.194,4.589,295.6,544.8,291.1
2023-11-29T05:06:07,2420,42.8014,5.9826,4330,272,186.373,57.089,13.316,36.042,36.622,41.212,4.590,295.6,544.8,291.0
2023-11-29T05:09:07,2420,42.8014,5.9826,4330,272,186.187,57.032,13.316,36.055,36.635,41.224,4.589,295.6,544.8,291.0
2023-11-29T05:12:07,2420,42.8014,5.9826,4330,272,186.186,57.031,13.316,36.055,36.635,41.225,4.589,295.6,544.8,291.0
2023-11-29T05:15:07,2420,42.8014,5.9826,4330,272,186.283,57.065,13.319,36.047,36.627,41.218,4.592,295.7,544.8,290.9
2023-11-29T05:18:08,2420,42.8014,5.9826,4330,272,186.245,57.051,13.317,36.050,36.630,41.220,4.590,295.7,544.8,291.0
2023-11-29T05:21:08,2420,42.8014,5.9826,4330,272,186.612,57.171,13.323,36.023,36.603,41.198,4.594,295.7,544.8,290.8
2023-11-29T05:24:08,2420,42.8014,5.9826,4330,272,186.388,57.098,13.320,36.040,36.620,41.207,4.587,295.7,544.8,290.9
2023-11-29T05:27:08,2420,42.8014,5.9826,4330,272,186.334,57.082,13.321,36.043,36.623,41.210,4.587,295.7,544.8,290.9
2023-11-29T05:30:07,2420,42.8014,5.9826,4330,272,186.442,57.120,13.324,36.034,36.614,41.204,4.590,295.7,544.7,290.8
2023-11-29T05:33:07,2420,42.8014,5.9826,4330,272,186.439,57.120,13.324,36.034,36.614,41.203,4.588,295.7,544.8,290.8
2023-11-29T05:36:07,2420,42.8014,5.9826,4330,272,186.341,57.087,13.322,36.041,36.621,41.214,4.592,295.8,544.8,290.8
2023-11-29T05:39:07,2420,42.8014,5.9826,4330,272,186.442,57.115,13.321,36.036,36.616,41.211,4.595,295.7,544.7,290.9
2023-11-29T05:42:08,2420,42.8014,5.9826,4330,272,186.148,57.028,13.323,36.054,36.634,41.222,4.588,295.8,544.8,290.8
2023-11-29T05:45:08,2420,42.8014,5.9826,4330,272,186.605,57.169,13.324,36.024,36.604,41.197,4.594,295.8,544.8,290.8
2023-11-29T05:48:08,2420,42.8014,5.9826,4330,272,186.484,57.135,13.325,36.031,36.611,41.201,4.590,295.7,544.7,290.7
2023-11-29T05:51:08,2420,42.8014,5.9826,4330,272,186.431,57.113,13.322,36.036,36.616,41.204,4.587,295.7,544.7,290.8
2023-11-29T05:54:08,2420,42.8014,5.9826,4330,272,186.333,57.086,13.324,36.042,36.622,41.211,4.589,295.8,544.7,290.8
2023-11-29T05:57:07,2420,42.8014,5.9826,4330,272,186.189,57.042,13.324,36.051,36.631,41.224,4.593,295.8,544.8,290.8
2023-11-29T06:00:07,2420,42.8014,5.9826,4330,272,186.286,57.067,13.320,36.047,36.627,41.217,4.590,295.8,544.7,290.9
2023-11-29T06:03:08,2420,42.8014,5.9826,4330,272,186.089,57.013,13.325,36.057,36.637,41.227,4.589,295.7,544.8,290.7
2023-11-29T06:06:07,2420,42.8014,5.9826,4330,272,186.250,57.055,13.319,36.049,36.629,41.221,4.593,295.8,544.8,290.9
2023-11-29T06:09:07,2420,42.8014,5.9826,4330,272,186.372,57.095,13.321,36.040,36.620,41.211,4.591,295.7,544.7,290.9
2023-11-29T06:12:07,2420,42.8014,5.9826,4330,272,186.169,57.032,13.320,36.054,36.634,41.225,4.591,295.8,544.7,290.9
2023-11-29T06:15:08,2420,42.8014,5.9826,4330,272,186.095,57.017,13.327,36.055,36.635,41.225,4.590,295.7,544.7,290.7
2023-11-29T06:18:08,2420,42.8014,5.9826,4330,272,186.005,56.976,13.317,36.066,36.646,41.237,4.591,295.7,544.7,291.0
2023-11-29T06:21:08,2420,42.8014,5.9826,4330,272,186.195,57.038,13.319,36.053,36.633,41.218,4.585,295.7,544.8,290.9
2023-11-29T06:24:08,2420,42.8014,5.9826,4330,272,186.174,57.040,13.326,36.051,36.631,41.221,4.590,295.7,544.7,290.7
2023-11-29T06:27:07,2420,42.8014,5.9826,4330,272,186.237,57.055,13.322,36.049,36.629,41.219,4.590,295.7,544.7,290.8
2023-11-29T06:30:07,2420,42.8014,5.9826,4330,272,186.289,57.069,13.321,36.046,36.626,41.219,4.594,295.7,544.8,290.9
2023-11-29T06:33:08,2420,42.8014,5.9826,4330,272,186.164,57.033,13.323,36.053,36.633,41.218,4.585,295.7,544.8,290.8
2023-11-29T06:36:07,2420,42.8014,5.9826,4330,272,186.245,57.056,13.321,36.049,36.629,41.217,4.589,295.8,544.7,290.9
2023-11-29T06:39:07,2420,42.8014,5.9826,4330,272,186.329,57.081,13.321,36.043,36.623,41.212,4.589,295.7,544.7,290.9
2023-11-29T06:42:07,2420,42.8014,5.9826,4330,272,186.237,57.055,13.322,36.049,36.629,41.220,4.592,295.7,544.7,290.8
2023-11-29T06:45:07,2420,42.8014,5.9826,4330,272,186.127,57.021,13.322,36.056,36.636,41.223,4.587,295.7,544.8,290.8
2023-11-29T06:48:08,2420,42.8014,5.9826,4330,272,186.344,57.085,13.320,36.043,36.623,41.216,4.593,295.7,544.7,290.9
2023-11-29T06:51:08,2420,42.8014,5.9826,4330,272,186.343,57.083,13.319,36.044,36.624,41.211,4.588,295.7,544.8,290.9
2023-11-29T06:54:08,2420,42.8014,5.9826,4330,272,186.289,57.068,13.320,36.046,36.626,41.214,4.587,295.8,544.7,290.9
2023-11-29T06:57:07,2420,42.8014,5.9826,4330,272,186.686,57.186,13.317,36.021,36.602,41.191,4.590,295.7,544.7,291.0
2023-11-29T07:00:07,2420,42.8014,5.9826,4330,272,186.267,57.060,13.319,36.048,36.628,41.221,4.592,295.8,544.7,290.9
2023-11-29T07:03:07,2420,42.8014,5.9826,4330,272,186.144,57.016,13.314,36.058,36.638,41.226,4.587,295.8,544.8,291.1
2023-11-29T07:06:07,2420,42.8014,5.9826,4330,272,186.402,57.097,13.316,36.041,36.621,41.213,4.592,295.7,544.7,291.0
2023-11-29T07:09:07,2420,42.8014,5.9826,4330,272,186.094,57.011,13.322,36.058,36.638,41.225,4.587,295.7,544.8,290.8
2023-11-29T07:12:07,2420,42.8014,5.9826,4330,272,186.463,57.117,13.317,36.037,36.617,41.208,4.591,295.7,544.7,291.0
2023-11-29T07:15:07,2420,42.8014,5.9826,4330,272,186.506,57.131,13.317,36.033,36.613,41.208,4.595,295.7,544.7,291.0
2023-11-29T07:18:07,2420,42.8014,5.9826,4330,272,186.368,57.085,13.315,36.043,36.623,41.215,4.591,295.7,544.8,291.1
2023-11-29T07:21:08,2420,42.8014,5.9826,4330,272,186.395,57.098,13.318,36.040,36.620,41.213,4.593,295.6,544.7,291.0
2023-11-29T07:24:08,2420,42.8014,5.9826,4330,272,186.376,57.091,13.317,36.042,36.622,41.212,4.590,295.7,544.7,291.0
2023-11-29T07:27:08,2420,42.8014,5.9826,4330,272,186.239,57.047,13.316,36.051,36.631,41.222,4.591,295.7,544.8,291.0
2023-11-29T07:30:07,2420,42.8014,5.9826,4330,272,186.471,57.130,13.325,36.032,36.612,41.208,4.596,295.7,544.7,290.7
2023-11-29T07:33:07,2420,42.8014,5.9826,4330,272,186.567,57.145,13.313,36.031,36.611,41.205,4.594,295.7,544.7,291.1
2023-11-29T07:36:07,2420,42.8014,5.9826,4330,272,186.472,57.116,13.314,36.037,36.617,41.212,4.595,295.8,544.8,291.1
2023-11-29T07:39:07,2420,42.8014,5.9826,4330,272,186.482,57.121,13.315,36.035,36.615,41.205,4.590,295.8,544.8,291.1
2023-11-29T07:42:08,2420,42.8014,5.9826,4330,272,186.248,57.051,13.317,36.050,36.630,41.219,4.589,295.7,544.7,291.0
2023-11-29T07:45:08,2420,42.8014,5.9826,4330,272,186.355,57.085,13.318,36.043,36.623,41.211,4.588,295.6,544.8,291.0
2023-11-29T07:48:08,2420,42.8014,5.9826,4330,272,186.450,57.111,13.315,36.038,36.618,41.214,4.596,295.7,544.8,291.1
2023-11-29T07:51:07,2420,42.8014,5.9826,4330,272,186.282,57.060,13.316,36.049,36.629,41.219,4.590,295.7,544.8,291.0
2023-11-29T07:54:07,2420,42.8014,5.9826,4330,272,186.231,57.042,13.314,36.053,36.633,41.221,4.588,295.6,544.8,291.1
2023-11-29T07:57:07,2420,42.8014,5.9826,4330,272,186.411,57.099,13.315,36.041,36.621,41.211,4.590,295.7,544.8,291.1
2023-11-29T08:00:08,2420,42.8014,5.9826,4330,272,186.375,57.087,13.314,36.043,36.623,41.214,4.591,295.7,544.9,291.1
2023-11-29T08:03:07,2420,42.8014,5.9826,4330,272,186.520,57.130,13.313,36.034,36.614,41.206,4.592,295.7,544.7,291.1
2023-11-29T08:06:07,2420,42.8014,5.9826,4330,272,186.380,57.093,13.318,36.041,36.621,41.216,4.594,295.7,544.8,291.0
2023-11-29T08:09:08,2420,42.8014,5.9826,4330,272,186.602,57.162,13.319,36.026,36.606,41.198,4.592,295.7,544.8,290.9
2023-11-29T08:12:08,2420,42.8014,5.9826,4330,272,186.464,57.114,13.314,36.038,36.618,41.207,4.590,295.7,544.8,291.1
2023-11-29T08:15:08,2420,42.8014,5.9826,4330,272,186.551,57.137,13.311,36.033,36.613,41.202,4.588,295.7,544.8,291.2
2023-11-29T08:18:08,2420,42.8014,5.9826,4330,272,186.597,57.151,13.311,36.030,36.610,41.202,4.591,295.7,544.8,291.2
2023-11-29T08:21:07,2420,42.8014,5.9826,4330,272,186.114,57.006,13.313,36.061,36.640,41.227,4.587,295.7,544.8,291.1
2023-11-29T08:24:07,2420,42.8014,5.9826,4330,272,186.489,57.124,13.316,36.035,36.615,41.205,4.589,295.7,544.8,291.0
2023-11-29T08:27:07,2420,42.8014,5.9826,4330,272,186.277,57.059,13.316,36.049,36.629,41.218,4.589,295.7,544.8,291.0
2023-11-29T08:30:07,2420,42.8014,5.9826,4330,272,186.607,57.159,13.315,36.028,36.608,41.198,4.590,295.6,544.8,291.1
2023-11-29T08:33:07,2420,42.8014,5.9826,4330,272,186.386,57.092,13.316,36.042,36.622,41.216,4.593,295.6,544.8,291.0
2023-11-29T08:36:07,2420,42.8014,5.9826,4330,272,186.606,57.162,13.318,36.027,36.607,41.204,4.598,295.7,544.8,291.0
2023-11-29T08:39:08,2420,42.8014,5.9826,4330,272,186.319,57.071,13.315,36.047,36.627,41.216,4.589,295.7,544.8,291.1
2023-11-29T08:42:08,2420,42.8014,5.9826,4330,272,186.368,57.090,13.318,36.042,36.622,41.211,4.590,295.7,544.9,291.0
2023-11-29T08:45:08,2420,42.8014,5.9826,4330,272,186.139,57.020,13.318,36.057,36.637,41.227,4.590,295.6,544.7,291.0
2023-11-29T08:48:08,2420,42.8014,5.9826,4330,272,186.399,57.100,13.319,36.040,36.620,41.212,4.592,295.6,544.7,290.9
2023-11-29T08:51:08,2420,42.8014,5.9826,4330,272,186.201,57.044,13.322,36.051,36.631,41.222,4.592,295.7,544.8,290.8
2023-11-29T08:54:07,2420,42.8014,5.9826,4330,272,186.270,57.056,13.315,36.049,36.629,41.222,4.593,295.8,544.8,291.1
2023-11-29T08:57:07,2420,42.8014,5.9826,4330,272,186.351,57.079,13.314,36.045,36.625,41.217,4.592,295.7,544.8,291.1
2023-11-29T09:00:07,2420,42.8014,5.9826,4330,272,186.597,57.153,13.313,36.030,36.610,41.200,4.590,295.7,544.8,291.1
2023-11-29T09:03:07,2420,42.8014,5.9826,4330,272,186.608,57.161,13.316,36.027,36.608,41.199,4.591,295.6,544.8,291.0
2023-11-29T09:06:07,2420,42.8014,5.9826,4330,272,186.379,57.088,13.314,36.043,36.623,41.212,4.589,295.7,544.8,291.1
2023-11-29T09:09:07,2420,42.8014,5.9826,4330,272,186.600,57.156,13.314,36.029,36.609,41.200,4.591,295.7,544.8,291.1
2023-11-29T09:12:07,2420,42.8014,5.9826,4330,272,186.206,57.036,13.315,36.054,36.634,41.217,4.583,295.7,544.8,291.1
2023-11-29T09:15:08,2420,42.8014,5.9826,4330,272,186.439,57.108,13.315,36.039,36.619,41.206,4.587,295.7,544.8,291.0
2023-11-29T09:18:08,2420,42.8014,5.9826,4330,272,186.480,57.118,13.313,36.037,36.617,41.210,4.592,295.7,544.8,291.1
2023-11-29T09:21:08,2420,42.8014,5.9826,4330,272,186.555,57.144,13.316,36.031,36.611,41.201,4.590,295.7,544.7,291.0
2023-11-29T09:24:08,2420,42.8014,5.9826,4330,272,186.424,57.105,13.317,36.039,36.619,41.213,4.594,295.6,544.7,291.0
2023-11-29T09:27:07,2420,42.8014,5.9826,4330,272,186.503,57.128,13.316,36.034,36.615,41.202,4.588,295.7,544.8,291.0
2023-11-29T09:30:07,2420,42.8014,5.9826,4330,272,186.407,57.098,13.315,36.040,36.620,41.211,4.591,295.7,544.8,291.0
2023-11-29T09:33:07,2420,42.8014,5.9826,4330,272,186.249,57.052,13.318,36.050,36.630,41.217,4.587,295.8,544.7,291.0
2023-11-29T09:36:07,2420,42.8014,5.9826,4330,272,186.456,57.116,13.318,36.036,36.616,41.214,4.598,295.7,544.7,291.0
2023-11-29T09:39:07,2420,42.8014,5.9826,4330,272,186.586,57.159,13.320,36.027,36.607,41.196,4.589,295.7,544.8,290.9
2023-11-29T09:42:07,2420,42.8014,5.9826,4330,272,186.429,57.114,13.323,36.036,36.616,41.211,4.594,295.7,544.7,290.8
2023-11-29T09:45:08,2420,42.8014,5.9826,4330,272,186.481,57.122,13.316,36.036,36.616,41.203,4.588,295.7,544.7,291.0
2023-11-29T09:48:08,2420,42.8014,5.9826,4330,272,186.524,57.138,13.319,36.031,36.611,41.202,4.591,295.7,544.7,290.9
2023-11-29T09:51:08,2420,42.8014,5.9826,4330,272,186.422,57.109,13.320,36.037,36.617,41.209,4.592,295.6,544.7,290.9
2023-11-29T09:54:08,2420,42.8014,5.9826,4330,272,186.242,57.052,13.319,36.050,36.630,41.215,4.585,295.7,544.7,290.9
2023-11-29T09:57:08,2420,42.8014,5.9826,4330,272,186.269,57.064,13.322,36.047,36.627,41.219,4.592,295.7,544.7,290.8
2023-11-29T10:00:07,2420,42.8014,5.9826,4330,272,186.314,57.073,13.318,36.046,36.626,41.215,4.590,295.6,544.7,291.0